[[{"header":{"parameterUnit":"m.s-1","parameterCategory":1,"la1":30.2991,"la2":30.254,"lo1":-89.0895,"lo2":-89.0444,"dy":0.0017,"dx":0.0017,"nx":28,"ny":28,"refTime":"2024-12-24T09:00:00:Z","depth":0,"parameterNumber":2,"parameterNumberName":"U-component_of_WINDS"},"data":[0,0,0,0,0,0,0,0,0,0,0,0,0,0,0,0,0,0,0,0,0,0,0,0,0,0,0,0,0,0,0,0,0,0,0,0,0,0,0,0,0,0,0,0,0,0,0,0,0,0,0,0,0,0,0,0,0,0,-6.1141,-6.1141,0,-6.1165,-6.1165,-6.1165,-6.1042,-6.1038,-6.1034,-6.1031,-6.1054,-6.1058,-6.1062,0,0,0,0,0,0,0,0,0,0,0,0,0,-6.0988,-6.0992,-6.1141,-6.1141,-6.1142,-6.1165,-6.1165,-6.1165,-6.1042,-6.1038,-6.1034,-6.1029,-6.1053,-6.1058,-6.1062,0,0,0,0,0,0,0,0,0,0,0,0,0,-6.1038,-6.0993,-6.1141,-6.1083,-6.1078,-6.1165,-6.1165,-6.1165,-6.1043,-6.1038,-6.1032,-6.1027,-6.1051,-6.1057,-6.1063,-6.1206,0,0,-6.1081,-6.1083,0,0,0,0,0,0,0,0,-6.1035,-6.1043,-6.1091,-6.1087,-6.1082,-6.1095,-6.1119,-6.1179,-6.1044,-6.1056,-6.1031,-6.1025,-6.1072,-6.1076,-6.1092,-6.1207,-6.1208,-6.1081,-6.1085,-6.1087,-6.1089,0,0,0,0,0,0,0,-6.1032,-6.1042,-6.115,-6.1092,-6.1086,-6.1056,-6.1057,-6.113,-6.1094,-6.1055,-6.1046,-6.1051,-6.1068,-6.1087,-6.1091,-6.1208,-6.1081,-6.1086,-6.109,-6.1092,-6.1441,-6.1447,0,0,0,0,0,0,-6.1036,-6.104,-6.1149,-6.1151,-6.1045,-6.1063,-6.1064,-6.1096,-6.1093,-6.1087,-6.1055,-6.1045,-6.1079,-6.1085,-6.1092,-6.1257,-6.1087,-6.1093,-6.1096,-6.1436,-6.1442,-6.1449,0,0,0,0,0,0,-6.1033,-6.1047,-6.1148,-6.1093,-6.1104,-6.1071,-6.1108,-6.1099,-6.1117,-6.1093,-6.1085,-6.108,-6.1075,-6.1084,-6.1178,-6.1256,-6.1096,-6.1101,-6.1429,-6.1438,-6.1446,-6.1591,0,0,0,0,0,0,-6.103,-6.1047,-6.1101,-6.1095,-6.1107,-6.1235,-6.1113,-6.1104,-6.1128,-6.1114,-6.1114,-6.1109,-6.1072,-6.117,-6.1184,-6.1262,-6.1106,-6.1421,-6.1433,-6.1443,-6.1579,-6.1603,-6.1624,0,0,0,0,0,-6.1025,-6.1141,-6.1104,-6.1118,-6.1174,-6.124,-6.1246,-6.1201,-6.1135,-6.1188,-6.1173,-6.1109,-6.1247,-6.1181,-6.1196,-6.1276,-6.1416,-6.143,-6.1442,-6.1568,-6.1598,-6.1624,0,0,0,0,0,0,-6.1155,-6.1139,-6.1098,-6.1216,-6.123,-6.1219,-6.1285,-6.1234,-6.1267,-6.1253,-6.1195,-6.1196,-6.1301,-6.1298,-6.1225,-6.1414,-6.132,-6.1336,-6.1411,-6.1439,-6.1461,-6.1458,-6.111,0,0,0,0,0,-6.1198,-6.1254,-6.1236,-6.1342,-6.1351,-6.1318,-6.1345,-6.1309,-6.1321,-6.1326,-6.1317,-6.1331,-6.1377,-6.1409,-6.145,-6.1579,-6.1577,-6.1642,-6.1665,-6.1684,-6.1697,-6.1764,-6.1792,-6.1491,-6.1491,-6.1491,0,0,-6.1286,-6.1284,-6.1322,-6.1368,-6.1375,-6.1433,-6.1323,-6.1389,-6.1431,-6.1336,-6.1424,-6.1419,-6.1431,-6.1543,-6.1592,-6.1544,-6.1781,-6.17,-6.1715,-6.1718,-6.178,-6.1809,-6.1834,-6.15,-6.1498,-6.1497,0,0,-6.1476,-6.1481,-6.1568,-6.1578,-6.1591,-6.1568,-6.159,-6.1587,-6.1579,-6.1668,-6.1597,-6.1647,-6.1728,-6.1739,-6.1755,-6.1953,-6.1895,-6.1968,-6.2085,-6.2151,-6.2174,-6.2195,-6.2263,-6.2288,-6.1983,-6.1983,-6.1983,0,-6.1583,-6.1668,-6.162,-6.1691,-6.1712,-6.1631,-6.1719,-6.1731,-6.1756,-6.1772,-6.1719,-6.1819,-6.1822,-6.1935,-6.1983,-6.2,-6.2022,-6.1965,-6.2175,-6.2195,-6.2214,-6.2278,-6.2304,-6.1992,-6.1991,-6.199,-6.1989,0,-6.1798,-6.1859,-6.1928,-6.1955,-6.1985,-6.2064,-6.2028,-6.2065,-6.2028,-6.2011,-6.2101,-6.2102,-6.2142,-6.2167,-6.2131,-6.2275,-6.2245,-6.2185,-6.2088,-6.2252,-6.2311,-6.2335,-6.2004,-6.2001,-6.1998,-6.1996,0,0,-6.2066,-6.2068,-6.2093,-6.2104,-6.2114,-6.2159,-6.2236,-6.2275,-6.2306,-6.2328,-6.2389,-6.2461,-6.2405,-6.2424,-6.2389,-6.2448,-6.2601,-6.238,-6.2379,-6.2418,-6.2758,-6.28,-6.283,-6.2565,-6.257,-6.2573,-6.2756,0,-6.2248,-6.2377,-6.2338,-6.2468,-6.2522,-6.2448,-6.2514,-6.2527,-6.2514,-6.2558,-6.2544,-6.2595,-6.2519,-6.253,-6.2585,-6.2571,-6.2668,-6.2558,-6.2619,-6.2622,-6.2614,-6.2861,-6.2905,-6.3077,-6.2779,-6.2783,-6.2786,0,-6.2477,-6.2508,-6.2644,-6.2645,-6.2666,-6.2726,-6.2759,-6.2803,-6.2817,-6.2803,-6.2826,-6.278,-6.2854,-6.2761,-6.2862,-6.2788,-6.2812,-6.2809,-6.2815,-6.2815,-6.2711,-6.2864,-6.3131,-6.3156,-6.2822,-6.2819,-6.2817,0,-6.2655,-6.2731,-6.2822,-6.2834,-6.2838,-6.2882,-6.2885,-6.2894,-6.292,-6.295,-6.2966,-6.3005,-6.3025,-6.3056,-6.3021,-6.2957,-6.3127,-6.3031,-6.3116,-6.3117,-6.315,-6.3148,-6.3421,-6.3174,-6.3173,-6.3173,-6.3172,0,-6.286,-6.2945,-6.2901,-6.2957,-6.305,-6.3005,-6.3099,-6.3094,-6.3103,-6.3155,-6.3095,-6.3146,-6.3099,-6.3145,-6.3119,-6.3206,-6.3216,-6.3206,-6.3197,-6.3209,-6.321,-6.322,-6.3206,-6.3179,-6.3178,-6.3177,-6.3175,0,-6.3071,-6.3046,-6.3139,-6.3136,-6.3138,-6.3206,-6.3203,-6.3254,-6.3239,-6.3307,-6.332,-6.3296,-6.3348,-6.3317,-6.3371,-6.3353,-6.3465,-6.3442,-6.346,-6.3452,-6.3537,-6.3528,-6.3823,-6.3858,-6.3592,-6.3595,-6.3597,0,-6.3201,-6.3265,-6.327,-6.3301,-6.3309,-6.3361,-6.3388,-6.3348,-6.3378,-6.34,-6.3448,-6.3495,-6.353,-6.3617,-6.3603,-6.3644,-6.3619,-6.372,-6.3624,-6.3634,-6.3616,-6.3611,-6.3616,-6.3737,-6.3741,-6.3743,-6.3745,0,-6.3434,-6.3419,-6.3461,-6.3499,-6.3533,-6.3561,-6.3584,-6.3613,-6.3573,-6.3611,-6.3664,-6.3692,-6.3747,-6.3794,-6.3829,-6.3832,-6.3782,-6.3777,-6.3797,-6.3807,-6.3814,-6.3808,-6.3508,-6.3768,-6.3766,-6.3764,-6.3763,-6.3762,-6.3606,-6.3659,-6.3671,-6.3719,-6.3733,-6.3756,-6.3803,-6.3795,-6.3839,-6.388,-6.3855,-6.3917,-6.393,-6.3972,-6.3982,-6.403,-6.3989,-6.402,-6.4027,-6.4035,-6.4045,-6.3811,-6.4037,-6.4036,-6.4035,-6.4035,-6.4034,0,-6.3832,-6.3837,-6.3883,-6.3917,-6.3955,-6.3908,-6.3932,-6.3966,-6.4022,-6.4039,-6.4075,-6.4136,-6.4182,-6.4175,-6.4216,-6.4256,-6.4234,-6.4268,-6.4262,-6.4263,-6.408,-6.4056,-6.4285,-6.4285,-6.4285,-6.4285,-6.4284,-6.4284,-6.3954,-6.404,-6.4027,-6.412,-6.4124,-6.4185,-6.4202,-6.4223,-6.4236,-6.4307,-6.4346,-6.4341,-6.4348,-6.439,-6.443,-6.4427,-6.4443,-6.4485,-6.4473,-6.4301,-6.4276,-6.4252,-6.4229,-6.449,-6.449,-6.465,-6.4652,-6.4653]},{"header":{"parameterUnit":"m.s-1","parameterCategory":1,"la1":30.2991,"la2":30.254,"lo1":-89.0895,"lo2":-89.0444,"dy":0.0017,"dx":0.0017,"nx":28,"ny":28,"refTime":"2024-12-24T09:00:00:Z","depth":0,"parameterNumber":3,"parameterNumberName":"V-component_of_WINDS"},"data":[0,0,0,0,0,0,0,0,0,0,0,0,0,0,0,0,0,0,0,0,0,0,0,0,0,0,0,0,0,0,0,0,0,0,0,0,0,0,0,0,0,0,0,0,0,0,0,0,0,0,0,0,0,0,0,0,0,0,-0.2977,-0.2976,0,-0.2961,-0.2961,-0.2961,-0.2984,-0.2984,-0.2985,-0.2986,-0.2969,-0.2968,-0.2966,0,0,0,0,0,0,0,0,0,0,0,0,0,-0.302,-0.302,-0.2977,-0.2976,-0.2976,-0.2961,-0.2961,-0.2961,-0.2983,-0.2984,-0.2985,-0.2986,-0.2969,-0.2968,-0.2966,0,0,0,0,0,0,0,0,0,0,0,0,0,-0.3003,-0.3019,-0.2977,-0.2986,-0.2986,-0.2962,-0.2961,-0.2961,-0.2983,-0.2984,-0.2986,-0.2987,-0.297,-0.2968,-0.2966,-0.2931,0,0,-0.2961,-0.296,0,0,0,0,0,0,0,0,-0.3004,-0.3001,-0.2985,-0.2985,-0.2986,-0.2976,-0.297,-0.2951,-0.2983,-0.2984,-0.2986,-0.2987,-0.297,-0.2968,-0.2963,-0.293,-0.293,-0.296,-0.2959,-0.2959,-0.2958,0,0,0,0,0,0,0,-0.3005,-0.3002,-0.2971,-0.2984,-0.2985,-0.2989,-0.2988,-0.2967,-0.2971,-0.2984,-0.2986,-0.2984,-0.2971,-0.2964,-0.2962,-0.2929,-0.296,-0.2959,-0.2958,-0.2957,-0.2862,-0.2861,0,0,0,0,0,0,-0.3006,-0.3003,-0.2971,-0.297,-0.2998,-0.2987,-0.2986,-0.2978,-0.2971,-0.2971,-0.2983,-0.2985,-0.2967,-0.2965,-0.2962,-0.2917,-0.2959,-0.2957,-0.2956,-0.2864,-0.2862,-0.286,0,0,0,0,0,0,-0.3006,-0.3003,-0.2972,-0.2987,-0.2983,-0.2985,-0.2976,-0.2977,-0.2971,-0.297,-0.297,-0.2976,-0.2968,-0.2964,-0.2938,-0.2917,-0.2956,-0.2954,-0.2865,-0.2863,-0.2861,-0.2829,0,0,0,0,0,0,-0.3008,-0.3003,-0.2991,-0.2986,-0.2982,-0.2949,-0.2975,-0.2976,-0.2968,-0.297,-0.2964,-0.2964,-0.2968,-0.294,-0.2936,-0.2915,-0.2953,-0.2867,-0.2864,-0.2862,-0.2832,-0.2826,-0.2821,0,0,0,0,0,-0.3009,-0.2983,-0.299,-0.2986,-0.2968,-0.2948,-0.2945,-0.2952,-0.2966,-0.2953,-0.2952,-0.2964,-0.292,-0.2937,-0.2933,-0.2911,-0.2868,-0.2865,-0.2862,-0.2834,-0.2827,-0.2821,0,0,0,0,0,0,-0.2986,-0.2983,-0.2991,-0.2963,-0.2955,-0.2952,-0.2936,-0.2945,-0.2933,-0.2935,-0.2943,-0.2941,-0.2912,-0.2909,-0.2928,-0.2874,-0.2896,-0.2892,-0.2877,-0.287,-0.2865,-0.2865,-0.2952,0,0,0,0,0,-0.2977,-0.2962,-0.296,-0.2936,-0.2932,-0.2934,-0.2926,-0.2931,-0.2923,-0.292,-0.2917,-0.2908,-0.2892,-0.2881,-0.2867,-0.2832,-0.2828,-0.2814,-0.2809,-0.2804,-0.28,-0.2777,-0.2769,-0.285,-0.285,-0.285,0,0,-0.296,-0.2956,-0.2947,-0.2931,-0.2926,-0.2908,-0.2931,-0.2913,-0.2899,-0.2917,-0.2891,-0.2888,-0.2878,-0.2846,-0.2832,-0.2843,-0.2777,-0.28,-0.2797,-0.2795,-0.2772,-0.2765,-0.2758,-0.2847,-0.2848,-0.2848,0,0,-0.2918,-0.2915,-0.2892,-0.2886,-0.2877,-0.2879,-0.2873,-0.2867,-0.2865,-0.2839,-0.2851,-0.2834,-0.2808,-0.2799,-0.2791,-0.2741,-0.275,-0.2736,-0.2707,-0.2684,-0.2678,-0.2672,-0.2651,-0.2643,-0.2732,-0.2732,-0.2732,0,-0.2897,-0.2872,-0.288,-0.2859,-0.285,-0.2865,-0.284,-0.2833,-0.282,-0.2813,-0.2825,-0.2789,-0.2784,-0.2747,-0.2735,-0.2729,-0.272,-0.2736,-0.2678,-0.2673,-0.2667,-0.2647,-0.2639,-0.273,-0.273,-0.2731,-0.2731,0,-0.2844,-0.2826,-0.2809,-0.2794,-0.2784,-0.2761,-0.2763,-0.2751,-0.2756,-0.2755,-0.2726,-0.272,-0.2702,-0.2694,-0.27,-0.2657,-0.2664,-0.2677,-0.2699,-0.2658,-0.2638,-0.2631,-0.2727,-0.2728,-0.2729,-0.2729,0,0,-0.2789,-0.2777,-0.277,-0.2761,-0.2751,-0.2737,-0.2713,-0.2696,-0.2683,-0.2673,-0.2651,-0.2626,-0.2637,-0.2628,-0.2632,-0.2613,-0.2568,-0.2628,-0.2628,-0.2614,-0.2516,-0.2504,-0.2495,-0.2575,-0.2574,-0.2573,-0.2515,0,-0.2744,-0.2704,-0.2708,-0.2669,-0.265,-0.2662,-0.2641,-0.2631,-0.2629,-0.2611,-0.2608,-0.2589,-0.2607,-0.2601,-0.2582,-0.2578,-0.2548,-0.2582,-0.2552,-0.2551,-0.2551,-0.2485,-0.2474,-0.242,-0.2508,-0.2507,-0.2506,0,-0.2688,-0.2674,-0.2632,-0.2621,-0.2613,-0.2594,-0.2576,-0.256,-0.2547,-0.2547,-0.2534,-0.2541,-0.2514,-0.2538,-0.2499,-0.2522,-0.2509,-0.2505,-0.2503,-0.2498,-0.2524,-0.2476,-0.2404,-0.2394,-0.2495,-0.2496,-0.2497,0,-0.2647,-0.2618,-0.2588,-0.2581,-0.2568,-0.2554,-0.2547,-0.2536,-0.2524,-0.2508,-0.2499,-0.248,-0.2469,-0.2453,-0.2453,-0.2471,-0.2412,-0.2437,-0.2408,-0.2407,-0.2394,-0.2394,-0.2315,-0.239,-0.239,-0.2391,-0.2391,0,-0.2595,-0.2569,-0.2569,-0.255,-0.2519,-0.2523,-0.2492,-0.2487,-0.2476,-0.2455,-0.2465,-0.2444,-0.2447,-0.2426,-0.2426,-0.2391,-0.2387,-0.2383,-0.2383,-0.2381,-0.238,-0.2371,-0.2374,-0.2388,-0.2389,-0.2389,-0.239,0,-0.2544,-0.2544,-0.2511,-0.2501,-0.2497,-0.2474,-0.2464,-0.2445,-0.2443,-0.2415,-0.2409,-0.2404,-0.2379,-0.2378,-0.235,-0.2349,-0.2305,-0.2311,-0.2309,-0.2309,-0.2279,-0.2281,-0.2189,-0.2175,-0.2263,-0.2262,-0.2261,0,-0.2511,-0.249,-0.2476,-0.2462,-0.2455,-0.2433,-0.242,-0.2422,-0.2407,-0.2389,-0.2371,-0.2347,-0.2327,-0.2286,-0.2279,-0.2256,-0.2259,-0.2228,-0.2255,-0.2252,-0.2254,-0.2254,-0.225,-0.2222,-0.2221,-0.2221,-0.222,0,-0.2449,-0.2449,-0.243,-0.2409,-0.2392,-0.2377,-0.2362,-0.2349,-0.2349,-0.2332,-0.2306,-0.2291,-0.226,-0.2234,-0.2211,-0.2202,-0.2209,-0.2211,-0.2203,-0.2199,-0.2197,-0.2194,-0.2292,-0.2213,-0.2214,-0.2214,-0.2215,-0.2215,-0.2403,-0.2383,-0.2369,-0.2346,-0.2335,-0.232,-0.23,-0.2294,-0.2272,-0.2247,-0.225,-0.2219,-0.2203,-0.2173,-0.2162,-0.2137,-0.2147,-0.2136,-0.2132,-0.2128,-0.2123,-0.2203,-0.2133,-0.2133,-0.2133,-0.2133,-0.2134,0,-0.2339,-0.233,-0.2309,-0.2286,-0.2267,-0.2276,-0.2259,-0.2242,-0.2215,-0.22,-0.2179,-0.2147,-0.2121,-0.2111,-0.2085,-0.2066,-0.2068,-0.2059,-0.2059,-0.2055,-0.2118,-0.2126,-0.2057,-0.2057,-0.2057,-0.2057,-0.2057,-0.2057,-0.2303,-0.2269,-0.2266,-0.2225,-0.2216,-0.2186,-0.2175,-0.216,-0.2147,-0.211,-0.2088,-0.2082,-0.2067,-0.2039,-0.2014,-0.2012,-0.2,-0.1988,-0.1986,-0.2044,-0.2052,-0.2059,-0.2067,-0.1986,-0.1986,-0.1926,-0.1926,-0.1925]}]]